Location: Newark
(50.4878°N, 14.3742°E)
Time: 16:44:04
(UTC+00:00)

ISS - Visible Passes

Search period start: 21 January 2020 00:00
Search period end: 31 January 2020 00:00
Orbit: 415 x 421 km, 51.6° (Epoch: 22 January)

Date Brightness Start Highest point End Pass type
(mag) Time Alt. Az. Time Alt. Az. Time Alt. Az.
21 Jan -1.3 18:13:06 10° SW 18:14:04 17° SSW 18:14:04 17° SSW visible
22 Jan -2.3 17:25:34 10° SSW 17:28:18 24° SE 17:28:18 24° SE visible
23 Jan -1.7 16:38:20 10° S 16:40:31 16° SE 16:42:27 11° ESE visible
23 Jan -2.0 18:13:29 10° WSW 18:15:23 30° SW 18:15:23 30° SW visible
24 Jan -3.3 17:25:38 10° SW 17:28:53 46° SSE 17:29:28 41° ESE visible
24 Jan -0.3 19:02:14 10° W 19:02:24 11° W 19:02:24 11° W visible
25 Jan -2.7 16:37:54 10° SW 16:40:58 33° SSE 16:43:30 13° E visible
25 Jan -2.4 18:14:11 10° W 18:16:26 39° W 18:16:26 39° W visible
26 Jan -3.8 17:26:10 10° WSW 17:29:32 80° SSE 17:30:25 46° E visible
26 Jan -0.3 19:03:01 10° W 19:03:21 12° W 19:03:21 12° W visible
27 Jan -3.5 16:38:11 10° WSW 16:41:32 62° SSE 16:44:22 14° ENE visible
27 Jan -2.5 18:14:58 10° W 18:17:17 40° WNW 18:17:17 40° WNW visible
28 Jan -3.8 17:26:52 10° W 17:30:15 75° N 17:31:13 43° ENE visible
28 Jan -0.4 19:03:45 10° WNW 19:04:09 13° WNW 19:04:09 13° WNW visible
29 Jan -3.8 16:38:47 10° WSW 16:42:10 85° NNW 16:45:08 13° ENE visible
29 Jan -2.6 18:15:41 10° W 18:18:04 42° WNW 18:18:04 42° WNW visible
30 Jan -3.7 17:27:35 10° W 17:30:58 70° N 17:31:59 41° ENE visible
30 Jan -0.4 19:04:25 10° WNW 19:04:55 13° WNW 19:04:55 13° WNW visible
